This is the latest recevied weather packets stored in our database for station/object AI5BL. If no packets are shown the sender has not sent any weather packets the latest 10 day(s).
| Time | Temp. | Humidity | Pressure | Rain* | Wind** | Luminosity | Snow |
|---|---|---|---|---|---|---|---|
| 1788527052 | 26.11° C | 95% | 1017.5 hPa | 0 mm | - | 107 W/m² | - |
| 1788526747 | 25.56° C | 95% | 1017.7 hPa | 0 mm | - | 81 W/m² | - |
| 1788526444 | 25.56° C | 96% | 1017.6 hPa | 0 mm | - | 67 W/m² | - |
| 1788526142 | 25.56° C | 97% | 1017.5 hPa | 0 mm | - | 68 W/m² | - |
| 1788525839 | 25° C | 98% | 1017.8 hPa | 0 mm | - | 77 W/m² | - |
| 1788525534 | 25° C | 98% | 1017.6 hPa | 0 mm | - | 75 W/m² | - |
| 1788525229 | 24.44° C | 99% | 1017.4 hPa | 0 mm | - | 69 W/m² | - |
| 1788524924 | 24.44° C | 99% | 1017.7 hPa | 0 mm | - | 59 W/m² | - |
| 1788524619 | 24.44° C | 99% | 1017.5 hPa | 0 mm | - | 52 W/m² | - |
| 1788524319 | 23.89° C | 99% | 1017.5 hPa | 0 mm | - | 38 W/m² | - |
| 1788524016 | 23.89° C | 99% | 1017.4 hPa | 0 mm | - | 26 W/m² | - |
| 1788523712 | 23.89° C | 99% | 1017.6 hPa | 0 mm | - | 23 W/m² | - |
| 1788523407 | 23.89° C | 99% | 1017.4 hPa | 0 mm | - | 26 W/m² | - |
| 1788523102 | 23.89° C | 99% | 1017.4 hPa | 0 mm | - | 28 W/m² | - |
| 1788522797 | 23.89° C | 99% | 1017.2 hPa | 0 mm | - | 17 W/m² | - |
| 1788522497 | 23.89° C | 99% | 1017.3 hPa | 0 mm | - | 9 W/m² | - |
| 1788522192 | 23.89° C | 99% | 1017.3 hPa | 0 mm | - | 6 W/m² | - |
| 1788521887 | 23.89° C | 99% | 1017.2 hPa | 0 mm | - | 4 W/m² | - |
| 1788521586 | 23.89° C | 99% | 1017.3 hPa | 0 mm | - | 2 W/m² | - |
| 1788521281 | 23.89° C | 99% | 1017.1 hPa | 0 mm | - | 1 W/m² | - |
| 1788520976 | 23.89° C | 99% | 1017.3 hPa | 0 mm | - | 0 W/m² | - |
| 1788520672 | 23.89° C | 99% | 1017.1 hPa | 0 mm | - | 0 W/m² | - |
| 1788520368 | 23.89° C | 99% | 1017.2 hPa | 0 mm | - | 0 W/m² | - |
| 1788520063 | 23.89° C | 99% | 1017.1 hPa | 0 mm | - | 0 W/m² | - |
| 1788519762 | 23.89° C | 99% | 1017.2 hPa | 0 mm | - | 0 W/m² | - |
* Rain latest hour (hover to see other rain measurements)
** Current wind speed in m/s (hover to see current wind gust speed)